EW4479 Weather Reports


time (UTC)temp
C
wind
direction
speed
KPH
gust
KPH
rain 1hr
cm
rain 24hr
cm
rain mn
cm
humidity
%
barometer
mb
20191019074704 10 295 1.6 6.4 0.00 0.00 0.00 91 1011.7
20191019074205 10 244 0.0 4.8 0.00 0.00 0.00 91 1011.8
20191019073705 10 126 0.0 4.8 0.00 0.00 0.00 91 1011.7
20191019073205 10 126 0.0 3.2 0.00 0.00 0.00 91 1011.6
20191019072705 10 129 0.0 3.2 0.00 0.00 0.00 91 1011.4
20191019072205 10 123 0.0 4.8 0.00 0.00 0.00 91 1011.3
20191019071705 10 123 0.0 4.8 0.00 0.00 0.00 91 1011.1
20191019071205 9 123 0.0 4.8 0.00 0.00 0.00 91 1010.9
20191019070705 9 122 1.6 6.4 0.00 0.00 0.00 91 1010.7
20191019070205 9 126 1.6 6.4 0.00 0.00 0.00 91 1010.6
20191019065704 9 140 1.6 6.4 0.00 0.00 0.00 91 1010.7
20191019065204 9 108 1.6 6.4 0.00 0.00 0.00 90 1011.0
20191019064705 9 121 1.6 8.0 0.00 0.00 0.00 90 1010.9
20191019064205 9 133 3.2 8.0 0.00 0.00 0.00 90 1011.0
20191019063705 8 126 3.2 8.0 0.00 0.00 0.00 90 1010.9
20191019063205 8 129 1.6 6.4 0.00 0.00 0.00 90 1010.7
20191019062704 8 128 1.6 4.8 0.00 0.00 0.00 90 1010.6
20191019062205 8 127 1.6 4.8 0.00 0.00 0.00 90 1010.9
20191019061705 8 116 0.0 4.8 0.00 0.00 0.00 89 1011.0
20191019061205 8 123 1.6 4.8 0.00 0.00 0.00 89 1011.1
20191019060705 8 127 1.6 4.8 0.00 0.00 0.00 89 1011.2
20191019060204 8 121 1.6 3.2 0.00 0.00 0.00 89 1011.1
20191019055705 8 128 0.0 4.8 0.00 0.00 0.00 89 1011.2
20191019055205 8 128 0.0 4.8 0.00 0.00 0.00 88 1011.2
20191019054705 8 126 0.0 4.8 0.00 0.00 0.00 88 1011.3
20191019054205 8 126 0.0 3.2 0.00 0.00 0.00 88 1011.4
20191019053705 8 126 0.0 3.2 0.00 0.00 0.00 88 1011.6
20191019053205 8 126 0.0 3.2 0.00 0.00 0.00 88 1011.8
20191019052705 8 126 0.0 1.6 0.00 0.00 0.00 88 1011.8
20191019052205 9 126 0.0 1.6 0.00 0.00 0.00 88 1011.9
20191019051704 9 126 0.0 1.6 0.00 0.00 0.00 88 1011.9
20191019051205 9 126 0.0 1.6 0.00 0.00 0.00 88 1011.9
20191019050704 9 126 0.0 1.6 0.00 0.00 0.00 88 1011.9
20191019050205 9 126 0.0 3.2 0.00 0.00 0.00 88 1012.1
20191019045705 9 126 0.0 3.2 0.00 0.00 0.00 88 1012.0
20191019045205 9 126 0.0 3.2 0.00 0.00 0.00 88 1011.9
20191019044705 9 126 0.0 1.6 0.00 0.00 0.00 88 1011.9
20191019044205 9 126 0.0 3.2 0.00 0.00 0.00 88 1012.0
20191019043704 10 126 0.0 3.2 0.00 0.00 0.00 88 1012.1
20191019043205 10 126 0.0 3.2 0.00 0.00 0.00 88 1012.1
20191019042704 10 126 0.0 3.2 0.00 0.00 0.00 88 1012.1
20191019042205 10 125 0.0 3.2 0.00 0.00 0.00 88 1012.2
20191019041706 10 127 0.0 3.2 0.00 0.00 0.00 88 1012.2
20191019041205 10 128 0.0 3.2 0.00 0.00 0.00 88 1012.2
20191019040705 10 128 0.0 3.2 0.00 0.00 0.00 88 1012.3
20191019040206 10 272 0.0 1.6 0.00 0.00 0.00 88 1012.3
20191019035704 10 272 0.0 3.2 0.00 0.00 0.00 88 1012.2
20191019035205 10 272 0.0 3.2 0.00 0.00 0.00 88 1012.3
20191019034705 10 272 0.0 3.2 0.00 0.00 0.00 88 1012.3
20191019034205 10 272 0.0 3.2 0.00 0.00 0.00 88 1012.4
20191019033705 10 272 0.0 3.2 0.00 0.00 0.00 88 1012.4
20191019033205 10 272 0.0 0.0 0.00 0.00 0.00 88 1012.5
20191019032705 10 272 0.0 1.6 0.00 0.00 0.00 88 1012.6
20191019032205 11 272 0.0 1.6 0.00 0.00 0.00 88 1012.6
20191019031705 11 272 0.0 1.6 0.00 0.00 0.00 88 1012.6
20191019031205 11 272 0.0 1.6 0.00 0.00 0.00 88 1012.6
20191019030705 11 272 0.0 1.6 0.00 0.00 0.00 88 1012.9
20191019030204 11 272 0.0 3.2 0.00 0.00 0.00 88 1012.9
20191019025705 11 272 0.0 4.8 0.00 0.00 0.00 88 1013.0
20191019025205 11 272 0.0 4.8 0.00 0.00 0.00 88 1013.0
20191019024705 11 272 0.0 6.4 0.00 0.00 0.00 88 1013.1
20191019024204 11 327 1.6 6.4 0.00 0.00 0.00 88 1013.2
20191019023704 11 347 1.6 4.8 0.00 0.00 0.00 88 1013.4
20191019023205 11 308 1.6 4.8 0.00 0.00 0.00 88 1013.4
20191019022705 11 309 0.0 1.6 0.00 0.00 0.00 88 1013.4
20191019022205 11 309 0.0 1.6 0.00 0.00 0.00 89 1013.3
20191019021704 11 309 0.0 1.6 0.00 0.00 0.00 89 1013.1
20191019021205 11 309 0.0 3.2 0.00 0.00 0.00 89 1013.2
20191019020705 11 309 0.0 3.2 0.00 0.00 0.00 89 1013.3
20191019020205 11 309 0.0 4.8 0.00 0.00 0.00 89 1013.2
20191019015705 11 309 0.0 4.8 0.00 0.00 0.00 89 1013.3
20191019015204 11 309 0.0 8.0 0.00 0.00 0.00 89 1013.2
20191019014705 11 287 1.6 8.0 0.00 0.00 0.00 89 1013.3
20191019014205 11 319 1.6 11.3 0.00 0.00 0.00 89 1013.3
20191019013705 11 291 3.2 11.3 0.00 0.00 0.00 89 1013.4
20191019013205 11 337 3.2 11.3 0.00 0.00 0.00 89 1013.4
20191019012705 11 319 3.2 11.3 0.00 0.00 0.00 89 1013.4
20191019012205 11 332 3.2 19.3 0.00 0.00 0.00 89 1013.5
20191019011705 10 288 3.2 19.3 0.00 0.00 0.00 90 1013.6
20191019011204 10 321 3.2 19.3 0.00 0.00 0.00 90 1013.7
20191019010705 10 339 3.2 3.2 0.00 0.00 0.00 89 1013.6
20191019010205 10 279 0.0 3.2 0.00 0.00 0.00 89 1013.7
20191019005705 10 207 0.0 1.6 0.00 0.00 0.00 89 1013.8
20191019005205 10 207 0.0 1.6 0.00 0.00 0.00 89 1013.8
20191019004705 10 207 0.0 0.0 0.00 0.00 0.00 89 1013.7
20191019004205 10 207 0.0 0.0 0.00 0.00 0.00 89 1013.7
20191019003705 10 207 0.0 0.0 0.00 0.00 0.00 89 1013.7
20191019003206 10 207 0.0 1.6 0.00 0.00 0.00 89 1013.8
20191019002704 10 207 0.0 1.6 0.00 0.00 0.00 89 1013.7
20191019002205 10 207 0.0 1.6 0.00 0.00 0.00 89 1013.7
20191019001705 10 207 0.0 1.6 0.00 0.00 0.00 89 1013.6
20191019001205 10 207 0.0 1.6 0.00 0.00 0.00 89 1013.7
20191019000705 10 207 0.0 1.6 0.00 0.00 0.00 89 1013.7
20191019000204 10 207 0.0 1.6 0.00 0.00 0.00 89 1013.6
20191018235704 10 207 0.0 0.0 0.00 0.00 0.00 89 1013.6
20191018235205 10 207 0.0 1.6 0.00 0.00 0.00 89 1013.6
20191018234705 10 207 0.0 1.6 0.00 0.00 0.00 89 1013.6
20191018234205 10 207 0.0 1.6 0.00 0.00 0.00 89 1013.6
20191018233705 10 207 0.0 3.2 0.00 0.00 0.00 89 1013.6
20191018233205 10 207 0.0 3.2 0.00 0.00 0.00 89 1013.5
20191018232705 10 207 0.0 3.2 0.00 0.00 0.00 89 1013.6
20191018232206 10 207 0.0 1.6 0.00 0.00 0.00 89 1013.6
20191018231705 10 207 0.0 1.6 0.00 0.00 0.00 88 1013.6
20191018231205 10 207 0.0 1.6 0.00 0.00 0.00 88 1013.6
20191018230704 10 207 0.0 1.6 0.00 0.00 0.00 88 1013.6
20191018230205 10 207 0.0 1.6 0.00 0.00 0.00 88 1013.5
20191018225705 10 207 0.0 1.6 0.00 0.00 0.00 88 1013.4
20191018225205 10 207 0.0 1.6 0.00 0.00 0.00 88 1013.4
20191018224704 10 207 0.0 1.6 0.00 0.00 0.00 88 1013.4
20191018224205 10 207 0.0 1.6 0.00 0.00 0.00 88 1013.3
20191018223705 10 207 0.0 1.6 0.00 0.00 0.00 88 1013.2
20191018223205 10 207 0.0 1.6 0.00 0.00 0.00 88 1013.1
20191018222705 9 207 0.0 3.2 0.00 0.00 0.00 88 1013.3
20191018222205 9 207 0.0 3.2 0.00 0.00 0.00 88 1013.3
20191018221705 9 207 0.0 1.6 0.00 0.00 0.00 88 1013.3
20191018221205 9 207 0.0 1.6 0.00 0.00 0.00 87 1013.5
20191018220704 9 208 0.0 1.6 0.00 0.00 0.00 87 1013.5
20191018220205 9 208 0.0 1.6 0.00 0.00 0.00 87 1013.4
20191018215705 9 208 0.0 1.6 0.00 0.00 0.00 87 1013.5
20191018215205 9 208 0.0 0.0 0.00 0.00 0.00 86 1013.5
20191018214705 9 208 0.0 0.0 0.00 0.00 0.00 86 1013.5
20191018214204 9 208 0.0 0.0 0.00 0.00 0.00 86 1013.5
20191018213705 9 208 0.0 0.0 0.00 0.00 0.00 85 1013.6
20191018213205 9 208 0.0 0.0 0.00 0.00 0.00 85 1013.7
20191018212705 9 208 0.0 0.0 0.00 0.00 0.00 85 1013.7
20191018212206 9 208 0.0 0.0 0.00 0.00 0.00 85 1013.6
20191018211704 9 208 0.0 0.0 0.00 0.00 0.00 85 1013.7
20191018211205 9 208 0.0 0.0 0.00 0.00 0.00 85 1013.6
20191018210705 10 208 0.0 0.0 0.00 0.00 0.00 85 1013.6
20191018210205 10 208 0.0 0.0 0.00 0.00 0.00 85 1013.6
20191018205705 10 208 0.0 1.6 0.00 0.00 0.00 84 1013.7
20191018205204 10 208 0.0 1.6 0.00 0.00 0.00 84 1013.7
20191018204705 10 208 0.0 1.6 0.00 0.00 0.00 84 1013.7
20191018204205 10 208 0.0 1.6 0.00 0.00 0.00 84 1013.7
20191018203705 10 208 0.0 1.6 0.00 0.00 0.00 84 1013.7
20191018203206 10 207 0.0 1.6 0.00 0.00 0.00 83 1013.6
20191018202705 10 207 0.0 1.6 0.00 0.00 0.00 83 1013.7
20191018202205 10 207 0.0 1.6 0.00 0.00 0.00 83 1013.7
20191018201704 10 207 0.0 1.6 0.00 0.00 0.00 83 1013.6
20191018201205 11 207 0.0 1.6 0.00 0.00 0.00 83 1013.7
20191018200705 11 207 0.0 1.6 0.00 0.00 0.00 83 1013.7
20191018200205 11 207 0.0 1.6 0.00 0.00 0.00 82 1013.6
20191018195706 11 207 0.0 1.6 0.00 0.00 0.00 82 1013.6
20191018195205 11 207 0.0 1.6 0.00 0.00 0.00 83 1013.7
20191018194704 11 207 0.0 1.6 0.00 0.00 0.00 82 1013.8
20191018194205 11 207 0.0 1.6 0.00 0.00 0.00 82 1013.9
20191018193705 11 207 0.0 1.6 0.00 0.00 0.00 82 1013.7
20191018193205 11 207 0.0 6.4 0.00 0.00 0.00 82 1013.7
20191018192705 11 207 1.6 8.0 0.00 0.00 0.00 82 1013.5
20191018192205 12 207 3.2 9.7 0.00 0.00 0.00 82 1013.6
20191018191705 12 186 4.8 9.7 0.00 0.00 0.00 82 1013.7
20191018191205 12 202 4.8 9.7 0.00 0.00 0.00 82 1013.7
20191018190704 12 190 4.8 9.7 0.00 0.00 0.00 81 1013.8
20191018190205 12 191 3.2 8.0 0.00 0.00 0.00 81 1013.7
20191018185705 12 180 3.2 8.0 0.00 0.00 0.00 81 1013.8
20191018185205 12 184 3.2 8.0 0.00 0.00 0.00 80 1013.7
20191018184705 12 178 3.2 8.0 0.00 0.00 0.00 80 1013.7
20191018184205 12 217 3.2 8.0 0.00 0.00 0.00 79 1013.7
20191018183705 12 174 3.2 6.4 0.00 0.00 0.00 79 1013.8
20191018183205 12 184 1.6 3.2 0.00 0.00 0.00 78 1013.7
20191018182705 13 277 0.0 3.2 0.00 0.00 0.00 78 1013.7
20191018182205 13 277 0.0 1.6 0.00 0.00 0.00 77 1013.8
20191018181705 13 277 0.0 1.6 0.00 0.00 0.00 77 1013.7
20191018181205 13 277 0.0 1.6 0.00 0.00 0.00 77 1013.8
20191018180704 13 277 0.0 1.6 0.00 0.00 0.00 77 1013.8
20191018180205 13 277 0.0 3.2 0.00 0.00 0.00 76 1013.9
20191018175705 13 277 0.0 3.2 0.00 0.00 0.00 76 1013.9
20191018175205 13 277 0.0 3.2 0.00 0.00 0.00 75 1013.9
20191018174705 13 277 0.0 3.2 0.00 0.00 0.00 75 1013.9
20191018174204 14 277 0.0 3.2 0.00 0.00 0.00 75 1013.9
20191018173704 14 279 0.0 3.2 0.00 0.00 0.00 74 1013.9
20191018173205 14 284 0.0 3.2 0.00 0.00 0.00 74 1013.9
20191018172705 14 284 0.0 6.4 0.00 0.00 0.00 74 1013.7
20191018172205 14 284 0.0 8.0 0.00 0.00 0.00 74 1013.7
20191018171705 14 284 1.6 8.0 0.00 0.00 0.00 74 1013.7
20191018171205 14 282 3.2 8.0 0.00 0.00 0.00 74 1013.7
20191018170705 14 301 3.2 9.7 0.00 0.00 0.00 74 1013.7
20191018170205 15 319 3.2 9.7 0.00 0.00 0.00 74 1013.8
20191018165705 15 286 3.2 9.7 0.00 0.00 0.00 74 1013.8
20191018165205 15 313 1.6 4.8 0.00 0.00 0.00 74 1013.7
20191018164704 15 280 0.0 4.8 0.00 0.00 0.00 74 1013.7
20191018164205 15 284 0.0 4.8 0.00 0.00 0.00 74 1013.7
20191018163705 15 275 0.0 1.6 0.00 0.00 0.00 72 1013.7
20191018163205 15 275 0.0 1.6 0.00 0.00 0.00 72 1013.7
20191018162705 15 275 0.0 1.6 0.00 0.00 0.00 72 1013.5
20191018162204 16 275 0.0 3.2 0.00 0.00 0.00 71 1013.5
20191018161704 16 275 0.0 3.2 0.00 0.00 0.00 70 1013.5
20191018161205 16 275 0.0 4.8 0.00 0.00 0.00 70 1013.5
20191018160705 16 284 0.0 4.8 0.00 0.00 0.00 70 1013.4
20191018160205 16 284 0.0 4.8 0.00 0.00 0.00 70 1013.4
20191018155704 16 273 0.0 3.2 0.00 0.00 0.00 69 1013.3
20191018155205 16 273 0.0 3.2 0.00 0.00 0.00 68 1013.3
20191018154704 16 273 0.0 3.2 0.00 0.00 0.00 68 1013.4
20191018154205 17 260 0.0 3.2 0.00 0.00 0.00 68 1013.3
20191018153704 17 260 0.0 3.2 0.00 0.00 0.00 67 1013.2
20191018153205 17 260 0.0 3.2 0.00 0.00 0.00 67 1013.2
20191018152705 17 265 0.0 4.8 0.00 0.00 0.00 66 1013.3
20191018152205 17 265 0.0 8.0 0.00 0.00 0.00 66 1013.3
20191018151705 17 265 1.6 9.7 0.00 0.00 0.00 65 1013.2
20191018151205 17 270 1.6 9.7 0.00 0.00 0.00 65 1013.2
20191018150704 17 278 1.6 9.7 0.00 0.00 0.00 64 1013.1
20191018150205 17 301 1.6 8.0 0.00 0.00 0.00 64 1012.9
20191018145705 17 279 1.6 8.0 0.00 0.00 0.00 64 1012.8
20191018145205 18 259 1.6 9.7 0.00 0.00 0.00 65 1012.8
20191018144705 18 215 1.6 9.7 0.00 0.00 0.00 66 1012.8
20191018144205 18 246 1.6 9.7 0.00 0.00 0.00 65 1012.6
20191018143704 18 229 1.6 6.4 0.00 0.00 0.00 68 1012.6
20191018143205 18 241 1.6 6.4 0.00 0.00 0.00 67 1012.8
20191018142705 18 241 1.6 6.4 0.00 0.00 0.00 67 1012.6
20191018142205 18 221 1.6 4.8 0.00 0.00 0.00 67 1012.5
20191018141705 18 223 1.6 6.4 0.00 0.00 0.00 67 1012.5
20191018141205 18 221 1.6 6.4 0.00 0.00 0.00 66 1012.4
20191018140705 18 221 1.6 6.4 0.00 0.00 0.00 66 1012.4
20191018140205 19 221 1.6 4.8 0.00 0.00 0.00 66 1012.4
20191018135704 19 221 1.6 4.8 0.00 0.00 0.00 67 1012.3
20191018135205 19 221 1.6 6.4 0.00 0.00 0.00 65 1012.3
20191018134704 19 221 1.6 6.4 0.00 0.00 0.00 64 1012.2
20191018134205 19 221 1.6 6.4 0.00 0.00 0.00 64 1012.1
20191018133705 19 200 0.0 6.4 0.00 0.00 0.00 64 1012.2
20191018133206 19 188 1.6 6.4 0.00 0.00 0.00 63 1012.3
20191018132704 19 187 3.2 8.0 0.00 0.00 0.00 62 1012.2
20191018132205 19 202 3.2 8.0 0.00 0.00 0.00 62 1012.2
20191018131705 19 181 1.6 8.0 0.00 0.00 0.00 62 1012.1
20191018131205 20 202 1.6 6.4 0.00 0.00 0.00 62 1012.1
20191018130705 20 202 3.2 6.4 0.00 0.00 0.00 61 1012.1
20191018130205 20 207 1.6 6.4 0.00 0.00 0.00 60 1012.1
20191018125705 20 196 1.6 6.4 0.00 0.00 0.00 60 1012.0
20191018125204 20 219 1.6 6.4 0.00 0.00 0.00 60 1012.1
20191018124705 20 222 1.6 4.8 0.00 0.00 0.00 59 1012.0
20191018124205 20 222 1.6 4.8 0.00 0.00 0.00 58 1012.1
20191018123705 20 244 1.6 4.8 0.00 0.00 0.00 59 1012.1
20191018123205 20 250 1.6 6.4 0.00 0.00 0.00 60 1012.3
20191018122705 20 259 1.6 6.4 0.00 0.00 0.00 59 1012.2
20191018122205 20 241 1.6 6.4 0.00 0.00 0.00 59 1012.2
20191018121705 20 237 1.6 6.4 0.00 0.00 0.00 59 1012.4
20191018121205 20 277 1.6 6.4 0.00 0.00 0.00 60 1012.3
20191018120704 20 238 1.6 6.4 0.00 0.00 0.00 60 1012.4
20191018120204 20 244 1.6 4.8 0.00 0.00 0.00 61 1012.4
20191018115705 20 239 0.0 4.8 0.00 0.00 0.00 60 1012.5
20191018115204 20 242 1.6 4.8 0.00 0.00 0.00 60 1012.4
20191018114705 19 250 1.6 4.8 0.00 0.00 0.00 60 1012.4
20191018114205 19 252 0.0 6.4 0.00 0.00 0.00 62 1012.5
20191018113705 19 283 1.6 6.4 0.00 0.00 0.00 61 1012.5
20191018113205 19 283 1.6 4.8 0.00 0.00 0.00 61 1012.5
20191018112705 19 236 0.0 4.8 0.00 0.00 0.00 62 1012.6
20191018112205 19 186 0.0 4.8 0.00 0.00 0.00 64 1012.6
20191018111704 18 186 0.0 3.2 0.00 0.00 0.00 65 1012.8
20191018111205 18 187 0.0 3.2 0.00 0.00 0.00 64 1012.8
20191018110705 18 187 0.0 6.4 0.00 0.00 0.00 64 1012.9
20191018110205 18 187 0.0 6.4 0.00 0.00 0.00 63 1012.9
20191018105705 18 187 1.6 6.4 0.00 0.00 0.00 64 1013.1
20191018105205 18 187 1.6 6.4 0.00 0.00 0.00 64 1013.2
20191018104705 18 197 1.6 3.2 0.00 0.00 0.00 66 1013.3
20191018104205 18 119 1.6 4.8 0.00 0.00 0.00 68 1013.3
20191018103705 18 126 1.6 4.8 0.00 0.00 0.00 69 1013.5
20191018103205 18 116 1.6 4.8 0.00 0.00 0.00 68 1013.5
20191018102705 18 132 1.6 4.8 0.00 0.00 0.00 68 1013.5
20191018102205 18 136 1.6 6.4 0.00 0.00 0.00 68 1013.6
20191018101705 18 222 1.6 8.0 0.00 0.00 0.00 67 1013.6
20191018101205 18 175 1.6 8.0 0.00 0.00 0.00 67 1013.7
20191018100705 18 190 1.6 6.4 0.00 0.00 0.00 67 1013.7
20191018100204 18 202 1.6 8.0 0.00 0.00 0.00 68 1013.7
20191018095705 17 192 1.6 8.0 0.00 0.00 0.00 68 1013.7
20191018095205 17 195 1.6 4.8 0.00 0.00 0.00 69 1013.7
20191018094705 17 197 1.6 4.8 0.00 0.00 0.00 72 1013.7
20191018094205 16 126 0.0 4.8 0.00 0.00 0.00 75 1013.7
20191018093705 16 126 0.0 4.8 0.00 0.00 0.00 76 1013.7
20191018093205 16 126 0.0 4.8 0.00 0.00 0.00 77 1013.7
20191018092706 16 127 1.6 4.8 0.00 0.00 0.00 77 1013.9
20191018092205 15 148 0.0 6.4 0.00 0.00 0.00 77 1013.9
20191018091705 15 167 1.6 6.4 0.00 0.00 0.00 77 1014.0
20191018091204 15 210 1.6 4.8 0.00 0.00 0.00 77 1014.1
20191018090705 15 146 0.0 8.0 0.00 0.00 0.00 78 1014.2
20191018090205 14 134 1.6 8.0 0.00 0.00 0.00 79 1014.0
20191018085704 14 131 1.6 8.0 0.00 0.00 0.00 80 1014.0
20191018085205 14 122 1.6 4.8 0.00 0.00 0.00 80 1014.0
20191018084705 14 146 0.0 3.2 0.00 0.00 0.00 81 1014.1
20191018084205 13 121 0.0 8.0 0.00 0.00 0.00 80 1014.3
20191018083704 13 194 1.6 8.0 0.00 0.00 0.00 80 1014.4
20191018083205 13 195 3.2 8.0 0.00 0.00 0.00 80 1014.5
20191018082705 13 184 1.6 8.0 0.00 0.00 0.00 80 1014.6
20191018082204 13 203 3.2 8.0 0.00 0.00 0.00 81 1014.5
20191018081705 13 205 3.2 11.3 0.00 0.00 0.00 81 1014.4
20191018081205 12 205 4.8 11.3 0.00 0.00 0.00 82 1014.5
20191018080705 12 183 4.8 11.3 0.00 0.00 0.00 82 1014.5
20191018080205 12 196 4.8 9.7 0.00 0.00 0.00 83 1014.4
20191018075705 12 175 4.8 11.3 0.00 0.00 0.00 84 1014.6
20191018075204 11 249 4.8 11.3 0.00 0.00 0.00 84 1014.6